�������l�o���
Date,Time,MP-1(��Sv/h),MP-2(��Sv/h),MP-3(��Sv/h),MP-4(��Sv/h),MP-5(��Sv/h),MP-6(��Sv/h),MP-7(��Sv/h),MP-8(��Sv/h),����,����(m/s),���J
2018/06/06,00:00,0.874,1.296,0.892,1.620,1.141,0.482,0.844,0.803,�k�k��,1.2,��
2018/06/06,00:10,0.874,1.293,0.893,1.621,1.143,0.483,0.843,0.803,�k�k��,1.2,��
2018/06/06,00:20,0.874,1.295,0.890,1.619,1.144,0.482,0.843,0.803,�k,1.2,��
2018/06/06,00:30,0.875,1.292,0.894,1.620,1.143,0.482,0.841,0.803,-,CALM,��
2018/06/06,00:40,0.872,1.296,0.893,1.621,1.141,0.482,0.843,0.801,-,CALM,��
2018/06/06,00:50,0.872,1.296,0.893,1.619,1.142,0.483,0.843,0.803,�k��,1.2,��
2018/06/06,01:00,0.876,1.293,0.893,1.618,1.143,0.483,0.844,0.801,�k��,1.2,��
2018/06/06,01:10,0.874,1.296,0.893,1.621,1.144,0.482,0.845,0.802,�k,1.2,��
2018/06/06,01:20,0.873,1.293,0.891,1.619,1.142,0.483,0.845,0.802,�k�k��,2.3,��
2018/06/06,01:30,0.874,1.295,0.891,1.619,1.143,0.482,0.845,0.803,�k�k��,2.8,��
2018/06/06,01:40,0.872,1.296,0.893,1.621,1.144,0.483,0.842,0.804,�k�k��,3.4,��
2018/06/06,01:50,0.873,1.295,0.893,1.619,1.143,0.481,0.842,0.802,�k�k��,3.2,��
2018/06/06,02:00,0.877,1.295,0.892,1.621,1.141,0.482,0.843,0.802,�k�k��,3.7,��
2018/06/06,02:10,0.874,1.293,0.892,1.620,1.141,0.482,0.843,0.802,�k,2.6,��
2018/06/06,02:20,0.874,1.294,0.894,1.621,1.141,0.482,0.844,0.804,�k,3.7,��
2018/06/06,02:30,0.877,1.292,0.892,1.619,1.145,0.483,0.843,0.803,�k,2.6,��
2018/06/06,02:40,0.874,1.295,0.893,1.620,1.143,0.482,0.843,0.803,�k,2.6,��
2018/06/06,02:50,0.873,1.293,0.891,1.619,1.145,0.480,0.844,0.801,�k,2.0,��
2018/06/06,03:00,0.875,1.293,0.892,1.618,1.146,0.480,0.844,0.804,�k,2.5,��
2018/06/06,03:10,0.874,1.293,0.895,1.619,1.143,0.479,0.843,0.802,�k�k��,1.9,��
2018/06/06,03:20,0.874,1.290,0.892,1.621,1.142,0.480,0.842,0.804,�k�k��,1.5,�L
2018/06/06,03:30,0.873,1.295,0.891,1.621,1.141,0.479,0.842,0.803,�k�k��,0.6,�L
2018/06/06,03:40,0.874,1.292,0.891,1.619,1.143,0.482,0.842,0.803,�k�k��,1.2,�L
2018/06/06,03:50,0.873,1.295,0.892,1.621,1.141,0.481,0.842,0.803,�k�k��,1.5,�L
2018/06/06,04:00,0.873,1.296,0.892,1.619,1.142,0.482,0.841,0.802,�k�k��,1.7,�L
2018/06/06,04:10,0.875,1.293,0.892,1.619,1.142,0.481,0.843,0.802,�k�k��,2.6,�L
2018/06/06,04:20,0.874,1.292,0.892,1.618,1.144,0.480,0.843,0.804,�k�k��,2.2,��
2018/06/06,04:30,0.873,1.295,0.890,1.620,1.144,0.480,0.844,0.803,�k��,1.7,�L
2018/06/06,04:40,0.872,1.293,0.890,1.615,1.142,0.480,0.841,0.803,�k�k��,2.2,�L
2018/06/06,04:50,0.874,1.293,0.891,1.620,1.142,0.481,0.842,0.802,�k�k��,3.0,��
2018/06/06,05:00,0.872,1.292,0.893,1.621,1.143,0.478,0.843,0.804,�k�k��,2.6,��
2018/06/06,05:10,0.873,1.292,0.893,1.617,1.141,0.481,0.844,0.804,�k�k��,3.4,��
2018/06/06,05:20,0.872,1.292,0.895,1.620,1.143,0.479,0.843,0.801,�k�k��,3.8,��
2018/06/06,05:30,0.873,1.292,0.891,1.619,1.141,0.479,0.843,0.804,�k��,2.9,��
2018/06/06,05:40,0.874,1.292,0.893,1.618,1.142,0.479,0.842,0.802,�k��,1.9,��
2018/06/06,05:50,0.873,1.295,0.893,1.619,1.144,0.480,0.841,0.804,�쐼,1.2,��
2018/06/06,06:00,0.873,1.293,0.894,1.617,1.140,0.481,0.842,0.803,��쐼,1.9,��
2018/06/06,06:10,0.872,1.294,0.892,1.621,1.142,0.479,0.844,0.803,��,2.0,��
2018/06/06,06:20,0.872,1.292,0.892,1.617,1.143,0.480,0.842,0.804,��쐼,1.7,��
2018/06/06,06:30,0.873,1.291,0.894,1.620,1.143,0.480,0.843,0.804,�k�k��,1.4,��
2018/06/06,06:40,0.873,1.293,0.894,1.620,1.144,0.480,0.843,0.804,�k,1.9,��
2018/06/06,06:50,0.871,1.292,0.890,1.618,1.142,0.480,0.843,0.804,�k�k��,1.5,��
2018/06/06,07:00,0.872,1.290,0.892,1.619,1.140,0.481,0.842,0.804,�k�k��,2.0,��
2018/06/06,07:10,0.870,1.289,0.892,1.620,1.142,0.480,0.841,0.802,�k�k��,1.5,��
2018/06/06,07:20,0.871,1.292,0.892,1.620,1.143,0.480,0.841,0.802,�k�k��,1.5,��
2018/06/06,07:30,0.870,1.291,0.890,1.620,1.142,0.478,0.840,0.801,�k��,1.2,��
2018/06/06,07:40,0.866,1.288,0.889,1.621,1.144,0.480,0.841,0.802,���k��,0.6,��
2018/06/06,07:50,0.867,1.288,0.892,1.619,1.143,0.479,0.840,0.799,�k�k��,0.6,��
2018/06/06,08:00,0.867,1.286,0.891,1.618,1.143,0.480,0.842,0.799,�k��,1.1,��
2018/06/06,08:10,0.871,1.287,0.891,1.618,1.142,0.477,0.841,0.801,���k��,1.1,��
2018/06/06,08:20,0.868,1.288,0.890,1.620,1.143,0.477,0.842,0.800,���쓌,2.0,��
2018/06/06,08:30,0.870,1.287,0.889,1.616,1.141,0.479,0.841,0.801,�쓌,2.8,��
2018/06/06,08:40,0.868,1.286,0.889,1.618,1.142,0.478,0.840,0.802,���쓌,1.5,��
2018/06/06,08:50,0.869,1.289,0.888,1.620,1.141,0.479,0.841,0.800,���쓌,1.7,��
2018/06/06,09:00,0.868,1.287,0.890,1.620,1.141,0.478,0.840,0.799,��,1.1,��
2018/06/06,09:10,0.867,1.286,0.890,1.617,1.140,0.479,0.843,0.799,�k��,1.4,��
2018/06/06,09:20,0.870,1.284,0.889,1.618,1.142,0.478,0.844,0.799,���쓌,1.5,��
2018/06/06,09:30,0.871,1.287,0.889,1.620,1.142,0.477,0.840,0.799,���쓌,1.5,��
2018/06/06,09:40,0.869,1.286,0.888,1.619,1.139,0.478,0.843,0.801,�k��,0.9,��
2018/06/06,09:50,0.870,1.287,0.887,1.621,1.141,0.479,0.842,0.799,�쓌,1.2,��
2018/06/06,10:00,0.868,1.289,0.888,1.619,1.142,0.478,0.843,0.800,�쓌,2.0,��
2018/06/06,10:10,0.868,1.284,0.890,1.619,1.141,0.479,0.843,0.798,�쓌,1.7,��
2018/06/06,10:20,0.870,1.288,0.888,1.619,1.141,0.479,0.843,0.800,���쓌,0.9,��
2018/06/06,10:30,0.871,1.288,0.889,1.622,1.141,0.478,0.844,0.800,�k��,2.0,��
2018/06/06,10:40,0.871,1.289,0.887,1.625,1.141,0.478,0.842,0.800,���k��,1.4,��
2018/06/06,10:50,0.873,1.290,0.890,1.619,1.142,0.480,0.844,0.799,�쓌,1.5,��
2018/06/06,11:00,0.871,1.287,0.888,1.616,1.141,0.477,0.841,0.800,���쓌,0.9,��
2018/06/06,11:10,0.874,1.286,0.889,1.621,1.142,0.479,0.843,0.801,�k�k��,1.7,��
2018/06/06,11:20,0.872,1.287,0.889,1.621,1.142,0.480,0.842,0.800,�k��,1.5,��
2018/06/06,11:30,0.873,1.288,0.889,1.619,1.141,0.478,0.844,0.800,�k�k��,2.2,��
2018/06/06,11:40,0.874,1.288,0.890,1.620,1.141,0.478,0.842,0.801,��,0.9,��
2018/06/06,11:50,0.871,1.289,0.890,1.622,1.143,0.481,0.842,0.799,�k,1.1,��
2018/06/06,12:00,0.872,1.290,0.889,1.618,1.141,0.479,0.843,0.803,�k�k��,2.2,��
2018/06/06,12:10,0.873,1.287,0.892,1.620,1.143,0.479,0.842,0.801,�k�k��,1.5,��
2018/06/06,12:20,0.872,1.293,0.890,1.622,1.142,0.480,0.843,0.800,�쓌,0.6,��
2018/06/06,12:30,0.871,1.288,0.891,1.624,1.140,0.479,0.843,0.801,�k�k��,3.0,��
2018/06/06,12:40,0.869,1.290,0.892,1.623,1.141,0.479,0.844,0.799,-,CALM,��
2018/06/06,12:50,0.872,1.289,0.889,1.623,1.141,0.478,0.843,0.800,�k�k��,2.9,��
2018/06/06,13:00,0.870,1.291,0.890,1.622,1.143,0.479,0.842,0.800,�k�k��,2.9,��
2018/06/06,13:10,0.872,1.288,0.891,1.624,1.142,0.480,0.841,0.802,�k��,2.3,��
2018/06/06,13:20,0.872,1.288,0.891,1.622,1.141,0.478,0.842,0.803,���k��,1.5,��
2018/06/06,13:30,0.874,1.288,0.890,1.621,1.142,0.479,0.842,0.801,�k,0.8,��
2018/06/06,13:40,0.873,1.291,0.890,1.620,1.142,0.479,0.844,0.801,�k�k��,3.3,��
2018/06/06,13:50,0.874,1.290,0.891,1.621,1.144,0.477,0.843,0.801,�k��,1.7,��
2018/06/06,14:00,0.872,1.292,0.892,1.619,1.142,0.477,0.843,0.800,���k��,1.4,��
2018/06/06,14:10,0.872,1.288,0.891,1.622,1.142,0.479,0.841,0.801,�k��,1.2,��
2018/06/06,14:20,0.874,1.289,0.892,1.623,1.143,0.479,0.842,0.801,�k��,1.5,��
2018/06/06,14:30,0.873,1.288,0.893,1.623,1.145,0.480,0.843,0.802,�k�k��,1.7,��
2018/06/06,14:40,0.874,1.290,0.892,1.621,1.145,0.479,0.841,0.802,�k��,1.9,��
2018/06/06,14:50,0.876,1.292,0.893,1.623,1.144,0.481,0.843,0.801,�k��,1.2,��
2018/06/06,15:00,0.873,1.290,0.893,1.625,1.144,0.480,0.843,0.801,�k�k��,1.5,��
2018/06/06,15:10,0.873,1.290,0.892,1.624,1.144,0.479,0.842,0.802,�k,1.2,��
2018/06/06,15:20,0.874,1.291,0.892,1.624,1.147,0.480,0.843,0.802,���k��,0.6,��
2018/06/06,15:30,0.875,1.293,0.896,1.621,1.141,0.482,0.842,0.803,�k�k��,0.6,��
2018/06/06,15:40,0.874,1.293,0.893,1.620,1.146,0.480,0.842,0.802,�k,0.9,��
2018/06/06,15:50,0.874,1.295,0.893,1.624,1.140,0.480,0.844,0.803,�k��,1.5,��
2018/06/06,16:00,0.874,1.294,0.894,1.621,1.142,0.480,0.842,0.801,�k��,1.2,��
2018/06/06,16:10,0.877,1.292,0.893,1.624,1.147,0.481,0.842,0.802,�쐼,0.8,��
2018/06/06,16:20,0.878,1.295,0.894,1.623,1.147,0.479,0.842,0.804,�쐼,1.1,��
2018/06/06,16:30,0.876,1.293,0.894,1.623,1.144,0.481,0.842,0.802,�쐼,0.9,��
2018/06/06,16:40,0.876,1.292,0.895,1.624,1.146,0.480,0.844,0.802,���쐼,0.6,��
2018/06/06,16:50,0.876,1.293,0.894,1.621,1.142,0.479,0.844,0.801,�k,0.9,��
2018/06/06,17:00,0.877,1.293,0.893,1.618,1.145,0.480,0.844,0.802,���쓌,0.9,��
2018/06/06,17:10,0.874,1.295,0.895,1.623,1.141,0.479,0.843,0.801,�k��,1.5,��
2018/06/06,17:20,0.874,1.290,0.893,1.622,1.143,0.480,0.843,0.799,�k�k��,1.5,��
2018/06/06,17:30,0.874,1.292,0.896,1.620,1.141,0.480,0.846,0.803,���쓌,1.5,��
2018/06/06,17:40,0.873,1.292,0.893,1.621,1.143,0.480,0.845,0.803,��,1.2,��
2018/06/06,17:50,0.873,1.292,0.895,1.626,1.142,0.480,0.843,0.803,���쓌,0.9,��
2018/06/06,18:00,0.871,1.292,0.895,1.625,1.143,0.481,0.842,0.803,���쓌,0.9,��
2018/06/06,18:10,0.874,1.290,0.893,1.623,1.145,0.480,0.842,0.803,���쓌,2.0,��
2018/06/06,18:20,0.875,1.290,0.892,1.625,1.146,0.480,0.842,0.800,���쓌,2.3,��
2018/06/06,18:30,0.875,1.293,0.895,1.624,1.144,0.478,0.844,0.803,��,1.2,��
2018/06/06,18:40,0.875,1.293,0.895,1.621,1.144,0.479,0.844,0.803,��쓌,0.6,��
2018/06/06,18:50,0.875,1.295,0.893,1.623,1.146,0.481,0.843,0.804,��,0.9,��
2018/06/06,19:00,0.877,1.293,0.894,1.624,1.145,0.480,0.843,0.803,��,0.9,��
2018/06/06,19:10,0.877,1.296,0.894,1.621,1.145,0.481,0.842,0.803,��쓌,1.5,��
2018/06/06,19:20,0.876,1.295,0.893,1.623,1.145,0.481,0.843,0.801,��쓌,1.4,��
2018/06/06,19:30,0.875,1.292,0.895,1.623,1.144,0.481,0.844,0.803,�쓌,1.7,��
2018/06/06,19:40,0.876,1.293,0.893,1.625,1.145,0.480,0.842,0.803,��쓌,1.7,��
2018/06/06,19:50,0.875,1.293,0.893,1.622,1.144,0.481,0.845,0.804,-,CALM,��
2018/06/06,20:00,0.874,1.293,0.894,1.621,1.145,0.480,0.843,0.802,-,CALM,��
2018/06/06,20:10,0.878,1.292,0.895,1.621,1.146,0.480,0.844,0.804,�쓌,0.9,��
2018/06/06,20:20,0.877,1.292,0.896,1.623,1.145,0.480,0.843,0.803,�쓌,1.2,��
2018/06/06,20:30,0.875,1.292,0.894,1.624,1.144,0.480,0.844,0.802,��쓌,0.6,��
2018/06/06,20:40,0.879,1.293,0.892,1.620,1.147,0.480,0.843,0.802,��,1.1,��
2018/06/06,20:50,0.874,1.292,0.894,1.623,1.144,0.480,0.843,0.803,��쓌,1.2,��
2018/06/06,21:00,0.876,1.294,0.894,1.623,1.146,0.480,0.844,0.803,��쓌,0.9,��
2018/06/06,21:10,0.875,1.293,0.894,1.623,1.145,0.480,0.844,0.805,��,0.6,��
2018/06/06,21:20,0.874,1.292,0.893,1.621,1.143,0.481,0.844,0.804,-,CALM,��
2018/06/06,21:30,0.875,1.292,0.894,1.623,1.144,0.482,0.844,0.803,��쐼,0.6,��
2018/06/06,21:40,0.875,1.293,0.894,1.621,1.146,0.480,0.843,0.803,��쐼,1.5,��
2018/06/06,21:50,0.876,1.292,0.895,1.624,1.144,0.480,0.844,0.804,�쐼,1.4,��
2018/06/06,22:00,0.875,1.292,0.894,1.621,1.145,0.482,0.844,0.803,���쐼,0.9,��
2018/06/06,22:10,0.876,1.292,0.894,1.625,1.144,0.481,0.844,0.803,�k��,1.2,��
2018/06/06,22:20,0.876,1.292,0.894,1.622,1.145,0.481,0.842,0.803,�k��,1.2,��
2018/06/06,22:30,0.875,1.293,0.894,1.624,1.146,0.479,0.843,0.804,�k��,1.2,��
2018/06/06,22:40,0.877,1.291,0.893,1.626,1.146,0.481,0.843,0.801,���k��,1.2,��
2018/06/06,22:50,0.877,1.294,0.894,1.623,1.145,0.482,0.844,0.802,-,CALM,��
2018/06/06,23:00,0.877,1.294,0.894,1.622,1.146,0.480,0.845,0.805,�쐼,0.6,��
2018/06/06,23:10,0.875,1.292,0.895,1.622,1.144,0.482,0.844,0.804,���k��,0.6,��
2018/06/06,23:20,0.878,1.293,0.892,1.625,1.143,0.481,0.844,0.804,�k��,0.6,��
2018/06/06,23:30,0.876,1.292,0.894,1.624,1.145,0.480,0.844,0.802,-,CALM,��
2018/06/06,23:40,0.876,1.291,0.896,1.619,1.146,0.481,0.844,0.805,-,CALM,��
2018/06/06,23:50,0.877,1.292,0.893,1.623,1.147,0.480,0.843,0.802,-,CALM,��
